Location: Falniów
(50.3639°N, 19.9642°E)
Time: 12:38:02
(UTC+00:00)

Cosmos 2082 Rocket - Pass Details

Date: 26 April 2026
Orbit: 831 x 853 km, 71.0° (Epoch: 19 May)

Event Time Altitude Azimuth Distance (km) Brightness Sun altitude
Exits shadow 01:42:10 - 280° (W) 3,064 4.8 -14.5°
Reaches altitude 10° 01:44:32 10° 297° (WNW) 2,490 4.5 -14.3°
Maximum altitude 01:47:46 15° 332° (NNW) 2,149 4.5 -13.9°
Drops below altitude 10° 01:50:59 10° 6° (N) 2,493 5.4 -13.5°
Sets 01:54:38 0° 30° (NNE) 3,430 6.8 -13.1°
